Regional Weather Roundup
Issued by NWS

Home | Current Version | Previous Version | Text Only | Print | Product List | Glossary On
Versions: 1 2 3 4 5 6 7 8 9 10 11 12 13 14 15 16 17 18 19 20 21 22 23 24 25 26 27 28 29 30 31 32 33 34 35 36 37 38 39 40 41 42 43 44 45 46 47 48 49 50
000
ASUS43 KLSX 231457
RWRMO

WEATHER SUMMARY FOR MISSOURI
NATIONAL WEATHER SERVICE SPRINGFIELD MO
1000 AM CDT MON APR 23 2018

NOTE: "FAIR" INDICATES FEW OR NO CLOUDS BELOW 12,000 FEET WITH NO
       SIGNIFICANT WEATHER AND/OR OBSTRUCTIONS TO VISIBILITY.
       CURRENT SKY AND/OR WEATHER CONDITIONS ARE NOT AVAILABLE FOR
       CHILLICOTHE AND FARMINGTON.

MOZ001>031-035>038-043-044-053-054-231600-
...NORTHERN AND WESTERN MISSOURI...

CITY           SKY/WX    TMP DP  RH WIND       PRES   REMARKS
KANSAS CTY INT MOSUNNY   61  35  37 N7        30.12F
LEE`S SUMMIT   CLOUDY    57  37  47 NE8       30.10F
ST JOSEPH      SUNNY     61  37  41 N8        30.14F
CHILLICOTHE      N/A     57  33  40 N9        30.13S

$$
MOZ066>068-077>081-088>096-101>105-231600-
...SOUTHWEST MISSOURI...

CITY           SKY/WX    TMP DP  RH WIND       PRES   REMARKS
SPRINGFIELD    CLOUDY    57  48  72 N12       30.00F
JOPLIN         CLOUDY    55  47  74 N12       30.06R
BRANSON        CLOUDY    55  50  82 NW15G21   29.99S

$$
MOZ032>034-039>042-045>050-055>058-069>072-231600-
...CENTRAL MISSOURI...

CITY           SKY/WX    TMP DP  RH WIND       PRES   REMARKS
COLUMBIA       NOT AVBL
JEFFERSON CITY CLOUDY    59  35  40 N16G22    30.02S
ROLLA          PTSUNNY   58  42  55 NE15      29.98S
SEDALIA        CLOUDY    59  41  51 N14       30.06F
WARRENSBURG    MOSUNNY   57  36  44 N8        30.08F

$$
MOZ051-052-059>065-231600-
...EAST CENTRAL MISSOURI...

CITY           SKY/WX    TMP DP  RH WIND       PRES   REMARKS
ST LOUIS INTL  LGT RAIN  49  49 100 NE12      30.00S FOG
SPIRIT OF STL  LGT RAIN  48  46  93 NE10      30.00R FOG

$$
MOZ072>076-082>087-097>100-106>115-231600-
...SOUTH CENTRAL AND SOUTHEAST MISSOURI...

CITY           SKY/WX    TMP DP  RH WIND       PRES   REMARKS
CAPE GIRARDEAU CLOUDY    60  57  89 E13       29.84R
POPLAR BLUFF   LGT RAIN  52  52 100 N9        29.84S FOG
WEST PLAINS    CLOUDY    50  48  93 N13G22    29.93S FOG

$$




USA.gov is the U.S. government's official web portal to all federal, state and local government web resources and services.